ANA1633 RJOO-RJOM

Flight info

Callsign ANA1633
Flight time 0h 42m
Altitude 20000
Route TIGER SUMAR AYAME SETOH ONOPA WASYU Y28 BAMBO Y283 ITUKI
Aircraft DH8D/M-SDE2E3FGRY/H

Departure

Time 2026-04-14 21:31
Airport Osaka Itami International Airport (RJOO)

Arrival

Time 2026-04-14 22:14
Airport Matsuyama Airport (RJOM)
Time Latitude Longitude Altitude Speed Heading
2026-04-14 20:47 34.78829 135.44516 61 ft 0 kts
2026-04-14 21:16 34.78820 135.44514 60 ft 2 kts
2026-04-14 21:16 34.78805 135.44513 60 ft 2 kts
2026-04-14 21:17 34.78790 135.44511 59 ft 2 kts
2026-04-14 21:17 34.78776 135.44508 58 ft 2 kts
2026-04-14 21:17 34.78761 135.44507 58 ft 2 kts
2026-04-14 21:17 34.78746 135.44505 57 ft 2 kts
2026-04-14 21:18 34.78731 135.44502 56 ft 2 kts
2026-04-14 21:18 34.78716 135.44501 56 ft 2 kts
2026-04-14 21:18 34.78701 135.44498 55 ft 2 kts 19°
2026-04-14 21:18 34.78688 135.44488 54 ft 2 kts 33°
2026-04-14 21:19 34.78677 135.44478 53 ft 2 kts 46°
2026-04-14 21:19 34.78666 135.44464 53 ft 2 kts 45°
2026-04-14 21:19 34.78656 135.44452 52 ft 2 kts 45°
2026-04-14 21:19 34.78645 135.44438 51 ft 2 kts 45°
2026-04-14 21:20 34.78634 135.44424 50 ft 2 kts 45°
2026-04-14 21:20 34.78624 135.44412 50 ft 2 kts 45°
2026-04-14 21:20 34.78613 135.44400 49 ft 2 kts 43°
2026-04-14 21:20 34.78603 135.44386 48 ft 2 kts 44°
2026-04-14 21:21 34.78592 135.44374 48 ft 2 kts 43°
2026-04-14 21:21 34.78581 135.44362 47 ft 2 kts 45°
2026-04-14 21:21 34.78572 135.44350 46 ft 0 kts 45°
2026-04-14 21:21 34.78563 135.44342 46 ft 2 kts 28°
2026-04-14 21:22 34.78550 135.44336 45 ft 2 kts
2026-04-14 21:22 34.78543 135.44334 45 ft 0 kts
2026-04-14 21:24 34.78580 135.44322 45 ft 13 kts 324°
2026-04-14 21:25 34.78673 135.44209 43 ft 19 kts 315°
2026-04-14 21:25 34.78770 135.44093 40 ft 19 kts 315°
2026-04-14 21:25 34.78863 135.43980 39 ft 17 kts 315°
2026-04-14 21:25 34.78943 135.43883 42 ft 14 kts 314°
2026-04-14 21:26 34.79009 135.43800 45 ft 12 kts 315°
2026-04-14 21:26 34.79056 135.43710 47 ft 15 kts 275°
2026-04-14 21:26 34.79095 135.43570 49 ft 20 kts 315°
2026-04-14 21:26 34.79202 135.43440 54 ft 22 kts 314°
2026-04-14 21:27 34.79312 135.43309 60 ft 20 kts 315°
2026-04-14 21:27 34.79402 135.43199 63 ft 17 kts 315°
2026-04-14 21:27 34.79483 135.43102 64 ft 15 kts 314°
2026-04-14 21:27 34.79558 135.43010 65 ft 14 kts 315°
2026-04-14 21:28 34.79630 135.42917 63 ft 15 kts 301°
2026-04-14 21:28 34.79610 135.42804 61 ft 13 kts 201°
2026-04-14 21:28 34.79570 135.42815 61 ft 0 kts 134°
2026-04-14 21:30 34.79530 135.42864 62 ft 38 kts 135°
2026-04-14 21:30 34.79104 135.43381 53 ft 127 kts 133°
2026-04-14 21:31 34.78364 135.44246 235 ft 158 kts 136°
2026-04-14 21:31 34.77356 135.44882 807 ft 176 kts 174°
2026-04-14 21:31 34.76162 135.44386 1336 ft 197 kts 218°
2026-04-14 21:31 34.75203 135.43205 2140 ft 199 kts 221°
2026-04-14 21:32 34.74258 135.41997 2926 ft 202 kts 222°
2026-04-14 21:32 34.73299 135.40729 3652 ft 205 kts 222°
2026-04-14 21:32 34.72341 135.39449 4361 ft 210 kts 223°
2026-04-14 21:32 34.71302 135.38100 4796 ft 228 kts 222°
2026-04-14 21:33 34.70180 135.36668 5355 ft 237 kts 222°
2026-04-14 21:33 34.69048 135.35239 6177 ft 235 kts 222°
2026-04-14 21:33 34.67943 135.33838 6888 ft 235 kts 225°
2026-04-14 21:33 34.67140 135.32085 7441 ft 243 kts 248°
2026-04-14 21:34 34.66660 135.30106 8048 ft 245 kts 252°
2026-04-14 21:34 34.66257 135.28081 8670 ft 248 kts 261°
2026-04-14 21:34 34.66396 135.26009 9294 ft 250 kts 280°
2026-04-14 21:34 34.66783 135.23975 9898 ft 251 kts 282°
2026-04-14 21:35 34.67172 135.21933 10593 ft 248 kts 282°
2026-04-14 21:35 34.67568 135.19890 11143 ft 251 kts 282°
2026-04-14 21:35 34.67963 135.17830 11690 ft 253 kts 282°
2026-04-14 21:35 34.68360 135.15767 12287 ft 252 kts 283°
2026-04-14 21:36 34.68763 135.13684 12832 ft 253 kts 283°
2026-04-14 21:36 34.69165 135.11603 13329 ft 254 kts 283°
2026-04-14 21:36 34.69562 135.09540 13890 ft 251 kts 283°
2026-04-14 21:36 34.69958 135.07477 14312 ft 254 kts 283°
2026-04-14 21:37 34.70356 135.05417 14750 ft 255 kts 283°
2026-04-14 21:37 34.70748 135.03305 15210 ft 254 kts 280°
2026-04-14 21:37 34.70723 135.01154 15595 ft 256 kts 260°
2026-04-14 21:37 34.70327 134.99056 15969 ft 259 kts 258°
2026-04-14 21:38 34.69924 134.96944 16385 ft 258 kts 258°
2026-04-14 21:38 34.69521 134.94840 16784 ft 258 kts 258°
2026-04-14 21:38 34.69109 134.92688 17114 ft 261 kts 258°
2026-04-14 21:38 34.68704 134.90570 17539 ft 259 kts 258°
2026-04-14 21:39 34.68296 134.88428 17854 ft 261 kts 258°
2026-04-14 21:39 34.67888 134.86284 18192 ft 262 kts 258°
2026-04-14 21:39 34.67477 134.84117 18525 ft 263 kts 258°
2026-04-14 21:39 34.67070 134.81978 18878 ft 263 kts 258°
2026-04-14 21:40 34.66657 134.79803 19178 ft 264 kts 258°
2026-04-14 21:40 34.66242 134.77618 19541 ft 264 kts 258°
2026-04-14 21:40 34.65833 134.75470 19851 ft 265 kts 258°
2026-04-14 21:40 34.65418 134.73290 20154 ft 265 kts 258°
2026-04-14 21:41 34.65003 134.71114 20394 ft 265 kts 258°
2026-04-14 21:41 34.64584 134.68916 20603 ft 268 kts 258°
2026-04-14 21:41 34.64166 134.66725 20871 ft 267 kts 258°
2026-04-14 21:41 34.63746 134.64528 21110 ft 267 kts 258°
2026-04-14 21:42 34.63327 134.62337 21286 ft 269 kts 258°
2026-04-14 21:42 34.62902 134.60117 21526 ft 268 kts 258°
2026-04-14 21:42 34.62483 134.57922 21702 ft 269 kts 258°
2026-04-14 21:42 34.62061 134.55725 21934 ft 268 kts 258°
2026-04-14 21:43 34.61641 134.53532 22116 ft 269 kts 258°
2026-04-14 21:43 34.61213 134.51309 22293 ft 269 kts 258°
2026-04-14 21:43 34.60789 134.49101 22453 ft 269 kts 258°
2026-04-14 21:43 34.60365 134.46898 22572 ft 271 kts 258°
2026-04-14 21:44 34.59934 134.44658 22754 ft 270 kts 258°
2026-04-14 21:44 34.59504 134.42425 22692 ft 277 kts 258°
2026-04-14 21:44 34.59055 134.40097 22647 ft 283 kts 258°
2026-04-14 21:44 34.58602 134.37756 22603 ft 288 kts 258°
2026-04-14 21:45 34.58142 134.35373 22562 ft 292 kts 258°
2026-04-14 21:45 34.57671 134.32941 22518 ft 296 kts 257°
2026-04-14 21:45 34.57197 134.30496 22441 ft 301 kts 257°
2026-04-14 21:45 34.56713 134.28005 22334 ft 306 kts 257°
2026-04-14 21:46 34.56221 134.25468 22219 ft 311 kts 257°
2026-04-14 21:46 34.55727 134.22929 22104 ft 314 kts 257°
2026-04-14 21:46 34.55222 134.20332 21987 ft 317 kts 257°
2026-04-14 21:46 34.54715 134.17735 21867 ft 319 kts 257°
2026-04-14 21:47 34.54207 134.15115 21739 ft 321 kts 258°
2026-04-14 21:47 34.53856 134.12439 21616 ft 322 kts 263°
2026-04-14 21:47 34.53621 134.09734 21505 ft 324 kts 264°
2026-04-14 21:47 34.53391 134.07028 21393 ft 325 kts 264°
2026-04-14 21:48 34.53157 134.04294 21275 ft 326 kts 264°
2026-04-14 21:48 34.52923 134.01576 21145 ft 326 kts 264°
2026-04-14 21:48 34.52684 133.98831 21026 ft 327 kts 264°
2026-04-14 21:48 34.52442 133.96083 20915 ft 328 kts 264°
2026-04-14 21:49 34.52202 133.93365 20790 ft 328 kts 264°
2026-04-14 21:49 34.51957 133.90604 20663 ft 328 kts 264°
2026-04-14 21:49 34.51712 133.87856 20547 ft 329 kts 264°
2026-04-14 21:49 34.51469 133.85138 20418 ft 318 kts 264°
2026-04-14 21:50 34.51230 133.82526 20281 ft 308 kts 264°
2026-04-14 21:50 34.50999 133.79956 20164 ft 314 kts 264°
2026-04-14 21:50 34.50762 133.77304 20048 ft 319 kts 264°
2026-04-14 21:50 34.50520 133.74600 19929 ft 322 kts 264°
2026-04-14 21:51 34.50278 133.71928 19907 ft 322 kts 264°
2026-04-14 21:51 34.50032 133.69220 19898 ft 322 kts 264°
2026-04-14 21:51 34.49786 133.66515 19886 ft 322 kts 264°
2026-04-14 21:51 34.49540 133.63827 19879 ft 321 kts 264°
2026-04-14 21:52 34.49294 133.61142 19876 ft 321 kts 264°
2026-04-14 21:52 34.49050 133.58489 19762 ft 325 kts 264°
2026-04-14 21:52 34.48792 133.55675 19113 ft 341 kts 264°
2026-04-14 21:52 34.48527 133.52802 18656 ft 349 kts 264°
2026-04-14 21:53 34.48258 133.49884 18255 ft 354 kts 264°
2026-04-14 21:53 34.47983 133.46924 17880 ft 356 kts 264°
2026-04-14 21:53 34.47705 133.43938 17495 ft 359 kts 264°
2026-04-14 21:53 34.47424 133.40924 17104 ft 360 kts 264°
2026-04-14 21:54 34.47051 133.38032 16671 ft 339 kts 256°
2026-04-14 21:54 34.46292 133.35416 16327 ft 318 kts 250°
2026-04-14 21:54 34.45523 133.32988 15995 ft 300 kts 249°
2026-04-14 21:54 34.44799 133.30713 15679 ft 284 kts 249°
2026-04-14 21:55 34.44103 133.28525 15377 ft 270 kts 249°
2026-04-14 21:55 34.43450 133.26466 15091 ft 258 kts 249°
2026-04-14 21:55 34.42825 133.24492 14818 ft 245 kts 249°
2026-04-14 21:55 34.42236 133.22627 14557 ft 233 kts 249°
2026-04-14 21:56 34.41671 133.20842 14308 ft 219 kts 249°
2026-04-14 21:56 34.41146 133.19179 14073 ft 205 kts 249°
2026-04-14 21:56 34.40651 133.17616 13857 ft 189 kts 249°
2026-04-14 21:56 34.40202 133.16205 13649 ft 170 kts 249°
2026-04-14 21:57 34.39805 133.14966 13436 ft 150 kts 248°
2026-04-14 21:57 34.39432 133.13803 12862 ft 155 kts 248°
2026-04-14 21:57 34.39033 133.12558 12205 ft 160 kts 248°
2026-04-14 21:57 34.38644 133.11337 11818 ft 157 kts 249°
2026-04-14 21:58 34.38266 133.10106 11799 ft 158 kts 249°
2026-04-14 21:58 34.37872 133.08817 11821 ft 159 kts 249°
2026-04-14 21:58 34.37494 133.07628 11777 ft 146 kts 248°
2026-04-14 21:58 34.37127 133.06477 11464 ft 153 kts 248°
2026-04-14 21:59 34.36739 133.05260 11225 ft 152 kts 248°
2026-04-14 21:59 34.36364 133.04080 11035 ft 150 kts 248°
2026-04-14 21:59 34.35990 133.02905 10756 ft 152 kts 248°
2026-04-14 21:59 34.35609 133.01709 10562 ft 149 kts 248°
2026-04-14 22:00 34.35239 133.00543 10309 ft 151 kts 248°
2026-04-14 22:00 34.34860 132.99352 10088 ft 149 kts 247°
2026-04-14 22:00 34.34491 132.98201 9876 ft 149 kts 247°
2026-04-14 22:00 34.34110 132.97017 9615 ft 151 kts 246°
2026-04-14 22:01 34.33736 132.95850 9439 ft 147 kts 246°
2026-04-14 22:01 34.33369 132.94696 9191 ft 149 kts 246°
2026-04-14 22:01 34.32989 132.93512 8952 ft 150 kts 246°
2026-04-14 22:01 34.32612 132.92331 8725 ft 150 kts 246°
2026-04-14 22:02 34.32238 132.91164 8517 ft 149 kts 246°
2026-04-14 22:02 34.31862 132.89990 8283 ft 149 kts 245°
2026-04-14 22:02 34.31435 132.88837 8043 ft 154 kts 230°
2026-04-14 22:02 34.30551 132.88155 8027 ft 153 kts 197°
2026-04-14 22:03 34.29513 132.87787 8073 ft 159 kts 197°
2026-04-14 22:03 34.28438 132.87411 8129 ft 164 kts 197°
2026-04-14 22:03 34.27319 132.87027 8182 ft 170 kts 197°
2026-04-14 22:03 34.26146 132.86629 8243 ft 176 kts 197°
2026-04-14 22:04 34.24945 132.86226 8298 ft 184 kts 197°
2026-04-14 22:04 34.23672 132.85794 8276 ft 196 kts 196°
2026-04-14 22:04 34.22300 132.85336 8154 ft 213 kts 196°
2026-04-14 22:04 34.20801 132.84840 7937 ft 231 kts 195°
2026-04-14 22:05 34.19179 132.84305 7696 ft 247 kts 196°
2026-04-14 22:05 34.17531 132.83684 7375 ft 249 kts 203°
2026-04-14 22:05 34.16124 132.82506 7197 ft 242 kts 219°
2026-04-14 22:05 34.14847 132.81201 6869 ft 242 kts 218°
2026-04-14 22:06 34.13575 132.79901 6611 ft 238 kts 218°
2026-04-14 22:06 34.12324 132.78615 6362 ft 235 kts 220°
2026-04-14 22:06 34.11073 132.77330 6072 ft 234 kts 218°
2026-04-14 22:06 34.09842 132.76082 5822 ft 232 kts 218°
2026-04-14 22:07 34.08608 132.74826 5550 ft 229 kts 218°
2026-04-14 22:07 34.07405 132.73585 5326 ft 225 kts 218°
2026-04-14 22:07 34.06215 132.72380 5064 ft 225 kts 219°
2026-04-14 22:07 34.05015 132.71170 4819 ft 224 kts 218°
2026-04-14 22:08 34.03832 132.69963 4573 ft 223 kts 218°
2026-04-14 22:08 34.02638 132.68745 4326 ft 222 kts 217°
2026-04-14 22:08 34.01481 132.67581 4113 ft 210 kts 216°
2026-04-14 22:08 34.00251 132.66676 3838 ft 208 kts 202°
2026-04-14 22:09 33.98911 132.65976 3557 ft 208 kts 200°
2026-04-14 22:09 33.97638 132.65329 3272 ft 191 kts 200°
2026-04-14 22:09 33.96435 132.64711 3069 ft 186 kts 200°
2026-04-14 22:09 33.95282 132.64119 2866 ft 173 kts 200°
2026-04-14 22:10 33.94191 132.63556 2596 ft 168 kts 200°
2026-04-14 22:10 33.93138 132.63014 2360 ft 163 kts 200°
2026-04-14 22:10 33.92104 132.62508 2134 ft 156 kts 195°
2026-04-14 22:10 33.91053 132.62241 1937 ft 152 kts 182°
2026-04-14 22:11 33.90012 132.62244 1741 ft 148 kts 171°
2026-04-14 22:11 33.89019 132.62492 1548 ft 144 kts 159°
2026-04-14 22:11 33.88096 132.62950 1285 ft 142 kts 148°
2026-04-14 22:11 33.87261 132.63647 1065 ft 149 kts 137°
2026-04-14 22:12 33.86552 132.64496 783 ft 147 kts 131°
2026-04-14 22:12 33.85876 132.65430 645 ft 144 kts 126°
2026-04-14 22:12 33.85253 132.66374 534 ft 144 kts 127°
2026-04-14 22:12 33.84620 132.67300 388 ft 142 kts 128°
2026-04-14 22:13 33.83989 132.68182 208 ft 137 kts 129°
2026-04-14 22:13 33.83391 132.69028 46 ft 129 kts 128°
2026-04-14 22:13 33.82851 132.69791 14 ft 102 kts 131°
2026-04-14 22:13 33.82481 132.70303 23 ft 65 kts 130°
2026-04-14 22:14 33.82311 132.70550 23 ft 15 kts 102°
2026-04-14 22:14 33.82352 132.70656 24 ft 12 kts 46°
2026-04-14 22:14 33.82417 132.70686 23 ft 8 kts 340°
2026-04-14 22:14 33.82457 132.70645 24 ft 6 kts 312°
2026-04-14 22:15 33.82486 132.70605 24 ft 7 kts 310°
2026-04-14 22:15 33.82528 132.70546 24 ft 9 kts 311°
2026-04-14 22:15 33.82571 132.70489 24 ft 8 kts 312°
2026-04-14 22:15 33.82632 132.70401 23 ft 13 kts 310°
2026-04-14 22:16 33.82676 132.70381 24 ft 5 kts 51°
2026-04-14 22:16 33.82697 132.70412 24 ft 4 kts 52°
2026-04-14 22:16 33.82716 132.70438 25 ft 4 kts 42°
2026-04-14 22:16 33.82741 132.70453 26 ft 3 kts 360°
2026-04-14 22:17 33.82748 132.70458 26 ft 0 kts 40°